Location: Haulchin
(50.3172°N, 3.4360°E)
Time: 04:16:53
(UTC+00:00)

CZ-2C R/B - Pass Details

Date: 23 May 2024
Orbit: 784 x 868 km, 98.3° (Epoch: 21 June)

Event Time Altitude Azimuth Distance (km) Brightness Sun altitude
Exits shadow 02:29:16 10° 195° (SSW) 2,315 4.4 -10.1°
Maximum altitude 02:34:00 39° 263° (W) 1,174 3.1 -9.6°
Drops below altitude 10° 02:38:51 10° 332° (NNW) 2,362 5.3 -9.1°
Sets 02:41:21 0° 340° (NNW) 3,302 6.2 -8.9°
